TimePST,TemperatureF,Dew PointF,Humidity,Sea Level PressureIn,VisibilityMPH,Wind Direction,Wind SpeedMPH,Gust SpeedMPH,PrecipitationIn,Events,Conditions,WindDirDegrees,DateUTC
12:58 AM,30.7,28.6,92,29.93,10.0,South,3.5,-,N/A,,Scattered Clouds,190,2013-03-05 08:58:00
1:58 AM,29.7,28.2,94,29.92,10.0,South,3.5,-,N/A,,Partly Cloudy,180,2013-03-05 09:58:00
2:58 AM,31.3,30.0,95,29.89,10.0,South,3.5,-,N/A,,Overcast,170,2013-03-05 10:58:00
3:58 AM,32.7,31.6,96,29.88,10.0,SE,1.2,-,N/A,,Overcast,130,2013-03-05 11:58:00
4:58 AM,33.3,32.4,96,29.86,10.0,South,2.3,-,N/A,,Mostly Cloudy,170,2013-03-05 12:58:00
5:58 AM,34.3,31.1,88,29.84,10.0,West,1.2,-,N/A,,Overcast,270,2013-03-05 13:58:00
6:58 AM,36.5,32.5,86,29.86,10.0,SW,4.6,-,N/A,,Overcast,230,2013-03-05 14:58:00
7:23 AM,37.4,35.6,93,29.84,10.0,Variable,2.3,-,N/A,Rain,Light Rain,0,2013-03-05 15:23:00
7:41 AM,39.2,35.6,87,29.83,10.0,ENE,2.3,-,N/A,,Mostly Cloudy,60,2013-03-05 15:41:00
7:58 AM,39.9,36.3,87,29.86,10.0,Calm,Calm,-,0.00,,Scattered Clouds,0,2013-03-05 15:58:00
8:58 AM,40.5,37.2,88,29.87,10.0,SE,6.9,-,N/A,,Scattered Clouds,140,2013-03-05 16:58:00
9:58 AM,42.1,36.1,79,29.87,10.0,South,2.3,-,N/A,,Scattered Clouds,170,2013-03-05 17:58:00
10:58 AM,44.6,37.2,75,29.85,10.0,North,2.3,-,N/A,,Mostly Cloudy,350,2013-03-05 18:58:00
11:58 AM,46.2,39.0,76,29.84,10.0,NW,3.5,-,N/A,,Partly Cloudy,310,2013-03-05 19:58:00
12:58 PM,46.4,38.5,74,29.84,10.0,NW,5.8,-,N/A,,Overcast,320,2013-03-05 20:58:00
1:58 PM,46.4,38.8,75,29.82,10.0,North,5.8,-,N/A,,Mostly Cloudy,360,2013-03-05 21:58:00
2:58 PM,46.0,38.8,76,29.81,10.0,NNW,6.9,-,N/A,,Overcast,330,2013-03-05 22:58:00
3:36 PM,46.4,39.2,76,29.80,10.0,NW,4.6,-,N/A,Rain,Light Rain,310,2013-03-05 23:36:00
3:46 PM,46.4,39.2,76,29.80,10.0,NW,5.8,-,N/A,,Mostly Cloudy,310,2013-03-05 23:46:00
3:58 PM,45.7,38.7,76,29.81,10.0,NW,5.8,-,0.00,,Mostly Cloudy,320,2013-03-05 23:58:00
4:42 PM,44.6,39.2,81,29.79,10.0,NNW,5.8,-,N/A,Rain,Light Rain,340,2013-03-06 00:42:00
4:58 PM,44.8,39.7,82,29.80,10.0,NW,6.9,-,0.00,Rain,Light Rain,310,2013-03-06 00:58:00
5:43 PM,42.8,39.2,87,29.79,10.0,North,4.6,-,N/A,Rain,Light Rain,350,2013-03-06 01:43:00
5:48 PM,42.8,39.2,87,29.79,10.0,North,5.8,-,N/A,Rain,Light Rain,350,2013-03-06 01:48:00
5:58 PM,43.0,39.7,88,29.81,10.0,North,5.8,-,0.00,Rain,Light Rain,360,2013-03-06 01:58:00
6:03 PM,42.8,39.2,87,29.79,10.0,NNW,4.6,-,N/A,Rain,Light Rain,340,2013-03-06 02:03:00
6:57 PM,42.8,41.0,93,29.79,10.0,NW,2.3,-,N/A,,Mostly Cloudy,310,2013-03-06 02:57:00
6:58 PM,42.8,41.0,93,29.81,10.0,WNW,2.3,-,0.01,,Mostly Cloudy,300,2013-03-06 02:58:00
7:01 PM,42.8,41.0,93,29.79,10.0,WNW,2.3,-,N/A,Rain,Light Rain,290,2013-03-06 03:01:00
7:58 PM,42.1,41.4,97,29.80,10.0,North,5.8,-,0.01,Rain,Light Rain,350,2013-03-06 03:58:00
8:58 PM,41.4,41.2,99,29.79,10.0,NNE,2.3,-,0.01,Rain,Light Rain,20,2013-03-06 04:58:00
9:18 PM,41.0,41.0,100,29.76,10.0,NE,3.5,-,N/A,,Clear,40,2013-03-06 05:18:00
9:58 PM,41.0,40.6,99,29.78,10.0,NNE,1.2,-,0.00,,Clear,30,2013-03-06 05:58:00
10:58 PM,40.3,39.9,99,29.75,4.0,Calm,Calm,-,N/A,,Overcast,0,2013-03-06 06:58:00
11:13 PM,41.0,41.0,100,29.73,1.5,Calm,Calm,-,N/A,,Overcast,0,2013-03-06 07:13:00
11:18 PM,41.0,41.0,100,29.73,1.2,Calm,Calm,-,N/A,,Overcast,0,2013-03-06 07:18:00
11:23 PM,41.0,41.0,100,29.73,1.5,Calm,Calm,-,N/A,,Mostly Cloudy,0,2013-03-06 07:23:00
11:28 PM,41.0,39.2,93,29.73,3.0,NNE,3.5,-,N/A,,Scattered Clouds,30,2013-03-06 07:28:00
11:33 PM,41.0,39.2,93,29.72,9.0,NNE,2.3,-,N/A,Rain,Light Rain,30,2013-03-06 07:33:00
11:45 PM,41.0,39.2,93,29.72,10.0,NNE,2.3,-,N/A,,Clear,30,2013-03-06 07:45:00
11:52 PM,41.0,41.0,100,29.71,9.0,ENE,1.2,-,N/A,Rain,Light Rain,60,2013-03-06 07:52:00
11:58 PM,40.5,40.1,99,29.73,9.0,NE,2.3,-,0.00,Rain,Light Rain,40,2013-03-06 07:58:00